K1PH Weather Reports


time (UTC)temp
C
wind
direction
speed
KPH
gust
KPH
rain 1hr
cm
rain 24hr
cm
rain mn
cm
humidity
%
barometer
mb
20260507021006 11 302 3.2 4.8 0.00 0.00 0.00 92 989.3
20260507015006 12 278 1.6 4.8 0.00 0.00 0.00 92 988.5
20260507014006 12 292 3.2 8.0 0.00 0.00 0.00 91 988.3
20260507013005 13 240 1.6 3.2 0.00 0.00 0.00 93 988.0
20260507012006 13 265 0.0 3.2 0.00 0.00 0.00 93 987.6
20260507004005 14 294 3.2 4.8 0.00 0.00 0.00 92 987.2
20260507003005 15 300 3.2 11.3 0.00 0.00 0.00 94 986.9
20260507002005 15 293 1.6 4.8 0.00 0.00 0.00 95 986.3
20260507001009 15 136 0.0 1.6 0.00 0.00 0.00 94 986.1
20260507000005 15 100 0.0 4.8 0.00 0.00 0.00 94 986.0
20260506235006 15 116 1.6 3.2 0.00 0.00 0.00 94 985.9
20260506234005 15 129 3.2 3.2 0.00 0.00 0.00 94 985.8
20260506233006 15 197 1.6 4.8 0.00 0.00 0.00 94 985.7
20260506232006 15 138 3.2 4.8 0.00 0.00 0.00 94 985.6
20260506231005 15 114 1.6 3.2 0.00 0.00 0.00 94 985.7
20260506230005 15 104 1.6 4.8 0.00 0.00 0.00 94 985.6
20260506225006 15 89 3.2 4.8 0.00 0.00 0.00 94 985.8
20260506224005 15 156 1.6 4.8 0.00 0.00 0.00 93 985.7
20260506223005 15 120 3.2 4.8 0.00 0.00 0.00 93 985.8
20260506222005 15 146 3.2 4.8 0.00 0.00 0.00 93 985.9
20260506221006 15 118 3.2 4.8 0.00 0.00 0.00 93 985.9
20260506220005 15 140 3.2 4.8 0.00 0.00 0.00 93 986.0
20260506215006 15 112 4.8 16.1 0.00 0.00 0.00 92 986.0
20260506214005 15 125 3.2 4.8 0.00 0.00 0.00 92 985.9
20260506213005 15 163 4.8 9.7 0.00 0.00 0.00 92 985.9
20260506212005 15 184 3.2 4.8 0.00 0.00 0.00 92 985.9
20260506211004 15 147 3.2 9.7 0.00 0.00 0.00 93 985.9
20260506210005 15 120 3.2 8.0 0.00 0.00 0.00 93 985.9
20260506205005 15 137 1.6 9.7 0.00 0.00 0.00 93 986.0
20260506204005 15 139 1.6 4.8 0.00 0.00 0.00 93 986.0
20260506203005 15 122 3.2 4.8 0.00 0.00 0.00 93 986.2
20260506202005 15 121 4.8 11.3 0.00 0.00 0.00 93 986.2
20260506201006 15 155 3.2 8.0 0.00 0.00 0.00 93 986.2
20260506194005 15 72 3.2 9.7 0.00 0.00 0.00 95 986.5
20260506193007 15 116 3.2 8.0 0.00 0.00 0.00 94 986.6
20260506192007 15 115 3.2 4.8 0.00 0.00 0.00 94 986.8
20260506190007 15 101 3.2 4.8 0.00 0.00 0.00 94 986.7
20260506185007 16 86 3.2 4.8 0.00 0.00 0.00 95 986.7
20260506184007 15 108 3.2 4.8 0.00 0.00 0.00 94 986.7
20260506183007 15 78 3.2 8.0 0.00 0.00 0.00 94 987.0
20260506182006 15 111 3.2 8.0 0.00 0.00 0.00 94 987.0
20260506181007 15 106 3.2 8.0 0.00 0.00 0.00 94 987.4
20260506180007 15 145 3.2 3.2 0.00 0.00 0.00 94 987.8
20260506174007 15 142 1.6 3.2 0.00 0.00 0.00 93 988.0
20260506173006 15 121 3.2 3.2 0.00 0.00 0.00 93 988.0
20260506172006 15 146 1.6 4.8 0.00 0.00 0.00 92 988.3
20260506170006 16 135 1.6 3.2 0.00 0.00 0.00 91 988.4
20260506165006 16 141 1.6 3.2 0.00 0.00 0.00 90 988.4
20260506164006 16 101 1.6 4.8 0.00 0.00 0.00 88 988.6
20260506163006 16 157 1.6 1.6 0.00 0.00 0.00 88 988.7
20260506162006 16 163 1.6 4.8 0.00 0.00 0.00 87 988.6
20260506161014 17 140 1.6 3.2 0.00 0.00 0.00 84 988.7
20260506160008 17 173 1.6 3.2 0.00 0.00 0.00 85 988.8
20260506155009 17 71 3.2 8.0 0.00 0.00 0.00 83 989.0
20260506154010 17 157 1.6 8.0 0.00 0.00 0.00 81 989.1
20260506153009 17 83 3.2 4.8 0.00 0.00 0.00 80 989.2
20260506151009 17 74 1.6 3.2 0.00 0.00 0.00 82 989.4
20260506144009 17 240 0.0 4.8 0.00 0.00 0.00 80 989.6
20260506143009 17 177 1.6 3.2 0.00 0.00 0.00 79 989.3
20260506142009 17 112 4.8 8.0 0.00 0.00 0.00 80 989.3
20260506141009 17 171 0.0 8.0 0.00 0.00 0.00 79 989.6
20260506135009 17 188 1.6 8.0 0.00 0.00 0.00 81 989.2
20260506134009 16 164 1.6 4.8 0.00 0.00 0.00 80 989.2
20260506133009 16 166 0.0 3.2 0.00 0.00 0.00 82 989.3
20260506132009 16 4 1.6 8.0 0.00 0.00 0.00 83 989.5
20260506130008 15 172 1.6 4.8 0.00 0.00 0.00 84 989.9
20260506125009 15 321 1.6 3.2 0.00 0.00 0.00 85 990.0
20260506124009 15 213 0.0 4.8 0.00 0.00 0.00 85 990.0
20260506123009 15 154 1.6 3.2 0.00 0.00 0.00 87 989.9
20260506121009 13 158 1.6 3.2 0.00 0.00 0.00 88 989.7
20260506120007 13 293 0.0 0.0 0.00 0.00 0.00 90 989.6
20260506115008 12 292 0.0 1.6 0.00 0.00 0.00 91 989.7
20260506114008 12 132 0.0 0.0 0.00 0.00 0.00 91 989.8
20260506112008 11 132 0.0 1.6 0.00 0.00 0.00 92 989.8
20260506111008 11 263 0.0 0.0 0.00 0.00 0.00 93 989.9
20260506110008 10 264 0.0 1.6 0.00 0.00 0.00 93 989.6
20260506105008 10 251 0.0 1.6 0.00 0.00 0.00 93 989.8
20260506104008 10 311 0.0 0.0 0.00 0.00 0.00 94 989.8
20260506103008 10 311 0.0 0.0 0.00 0.00 0.00 94 989.7
20260506102008 10 311 0.0 0.0 0.00 0.00 0.00 94 989.6
20260506101008 10 311 0.0 0.0 0.00 0.00 0.00 94 989.6
20260506100008 10 311 0.0 1.6 0.00 0.00 0.00 94 989.7
20260506094007 10 104 0.0 0.0 0.00 0.00 0.00 94 989.5
20260506093008 10 104 0.0 0.0 0.00 0.00 0.00 93 989.5
20260506092008 10 104 0.0 0.0 0.00 0.00 0.00 93 989.6
20260506091007 10 104 0.0 0.0 0.00 0.00 0.00 93 989.7
20260506090007 10 104 0.0 1.6 0.00 0.00 0.00 93 989.6
20260506085008 10 135 0.0 0.0 0.00 0.00 0.00 93 989.6
20260506083008 10 135 0.0 0.0 0.00 0.00 0.00 92 989.8
20260506082009 11 135 0.0 1.6 0.00 0.00 0.00 92 989.9
20260506081008 11 110 0.0 0.0 0.00 0.00 0.00 91 989.9
20260506073007 11 110 0.0 1.6 0.00 0.00 0.00 90 990.2
20260506072007 12 133 0.0 1.6 0.00 0.00 0.00 90 990.3
20260506071007 12 131 1.6 3.2 0.00 0.00 0.00 89 990.2
20260506062007 13 335 0.0 0.0 0.00 0.00 0.00 88 990.0
20260506061007 13 335 0.0 0.0 0.00 0.00 0.00 88 990.2
20260506051007 14 284 0.0 0.0 0.00 0.00 0.00 86 990.2
20260506045006 14 129 0.0 0.0 0.00 0.00 0.00 86 990.3
20260506044007 14 129 0.0 0.0 0.00 0.00 0.00 86 990.2
20260506043006 15 129 1.6 3.2 0.00 0.00 0.00 86 990.2
20260506042006 15 117 1.6 1.6 0.00 0.00 0.00 86 990.2
20260506041006 15 125 0.0 1.6 0.00 0.00 0.00 85 990.2
20260506040006 16 131 1.6 3.2 0.00 0.00 0.00 83 990.3
20260506035007 16 159 0.0 1.6 0.00 0.00 0.00 82 990.2
20260506034007 16 356 1.6 1.6 0.00 0.00 0.00 82 990.0
20260506032007 17 106 0.0 0.0 0.00 0.00 0.00 79 989.9
20260506031006 17 106 0.0 1.6 0.00 0.00 0.00 76 989.9
20260506030006 17 4 0.0 1.6 0.00 0.00 0.00 75 989.8
20260506025006 17 96 0.0 4.8 0.00 0.00 0.00 74 989.8
20260506024006 17 60 0.0 1.6 0.00 0.00 0.00 73 989.9
20260506023006 18 55 0.0 1.6 0.00 0.00 0.00 73 989.9
20260506022006 18 89 0.0 3.2 0.00 0.00 0.00 72 990.1